Simultaneous Nadir Overpasses (SNOs) Predictions

Prediction of SNOs between METOP-B and NOAA-19 Satellite Orbit:

Table of predicted SNOs for the next 14.0 days since TLE Epoch: 3/29/2025
Index Date (METOP-B) Time (METOP-B) Lat,Lon (METOP-B) SZA (METOP-B ) Date (NOAA-19) Time (NOAA-19) Lat,Lon (NOAA-19) SZA (NOAA-19 ) Distance(km) Time Diff (sec)
1 04/05/2025 07:18:39 80.78, 140.07 80.57 04/05/2025 07:17:44 80.78, 140.16 80.55 1.64 55
2 04/05/2025 08:09:19 -80.77, -52.47 99.43 04/05/2025 08:08:37 -80.78, -52.58 99.47 1.98 42
3 04/05/2025 09:00:00 80.77, 114.97 80.58 04/05/2025 08:59:40 80.77, 114.91 80.56 1.09 20
4 04/05/2025 09:50:40 -80.76, -77.58 99.43 04/05/2025 09:50:32 -80.76, -77.48 99.42 1.86 8
5 04/05/2025 10:41:21 80.75, 89.86 80.58 04/05/2025 10:41:35 80.75, 90.01 80.61 2.77 14
6 04/05/2025 11:32:01 -80.74,-102.69 99.42 04/05/2025 11:32:28 -80.75,-102.73 99.41 0.92 27
7 04/05/2025 12:22:42 80.74, 64.75 80.58 04/05/2025 12:23:31 80.74, 64.76 80.62 0.11 49



Historial Predications of SNOs between METOP-B and NOAA-19
